sat.trackr.live / text

‹ back to catalog

STARLINK-37463

NORAD 68854 · 2026-094R

PAYLOAD ACTIVE UNKNOWN

§ Identity

Operator
Country
US
Launch date
2026-04-26
Launch site
AFWTR
Launch vehicle
Mass (kg)
RCS (m²)

Purposes: comms

External: N2YO · Heavens-Above · Gunter

§ Orbital elements

Epoch: 2026-05-25T04:00:03.998880Z

Period
92.95 min
Inclination
97.2848°
Eccentricity
0.0001160
Mean motion
15.49183903 rev/d
Perigee alt
418.3 km
Apogee alt
419.9 km
Semi-major
6,797.2 km
B*
1.4018e-5
RAAN
159.9363°
Arg perigee
80.0564°
Mean anomaly
162.2750°
Rev number
567

§ Raw data

STARLINK-374631 68854U 26094R   26145.16671295  .00000672  00000+0  14018-4 0  99992 68854  97.2848 159.9363 0001160  80.0564 162.2750 15.49183903  5672

JSON: /api/v1/satellites/68854 · /tle

For live sub-satellite position, see the globe view (requires WebGL).

§ Visibility from observer

Set your observer location to see the next 7 days of passes ≥ 10°. The values pass through the URL so the page stays shareable.

No JS? Fill the form by hand. The geolocation button needs JavaScript.